Location: Grange Cautun
(44.5000°N, 6.9667°E)
Time: 03:03:07
(UTC+00:00)

Daily predictions for brighter satellites

Satellite Brightness Start Highest point End
(mag) Time Altitude Azimuth Time Altitude Azimuth Time Altitude Azimuth
SL-16 R/B 3.5 01:19:17 43° NNE 01:19:17 43° NNE 01:23:35 10° N
Cosmos 2369 Rocket 3.9 01:21:55 28° ENE 01:21:55 28° ENE 01:24:55 10° NE
ADEOS II 3.9 01:17:50 10° NNE 01:20:29 28° NE 01:20:29 28° NE
Cosmos 2278 Rocket 4.3 01:47:12 17° NNW 01:47:12 17° NNW 01:49:48 10° N
Cosmos 1943 Rocket 3.7 01:48:36 29° NNW 01:48:36 29° NNW 01:51:47 10° NNE
ALOS 4.1 01:54:06 10° NE 01:57:20 26° ENE 01:57:20 26° ENE
CZ-2D R/B 3.6 01:54:14 10° N 01:57:00 30° N 01:57:00 30° N
Resurs 1-4 Rocket 3.6 01:56:24 10° N 01:59:10 29° NNW 01:59:10 29° NNW
IDEFIX/ARIANE 42P 3.9 02:08:55 10° N 02:11:53 32° NNW 02:11:53 32° NNW
Cosmos 2221 4.0 02:19:39 36° NE 02:19:39 36° NE 02:22:30 10° NNE
Meteor 1-25 Rocket 4.4 02:14:38 10° N 02:19:41 68° NNE 02:19:41 68° NNE
Cosmos 2263 4.4 02:22:08 70° NNE 02:22:08 70° NNE 02:27:13 10° NNE
SeaSat 1 3.0 02:18:02 10° NNE 02:21:50 54° NNE 02:21:50 54° NNE
ATLAS CENTAUR R/B 3.1 02:27:11 31° N 02:27:11 31° N 02:29:42 10° NNE
MSX 4.4 02:22:31 10° N 02:27:03 46° NW 02:27:03 46° NW
Cosmos 44 4.2 02:29:51 42° NNE 02:29:51 42° NNE 02:33:02 10° NNE
Lacrosse 5 2.9 02:29:14 38° NNW 02:29:14 38° NNW 02:33:25 10° NE
Cosmos 2285 Rocket 4.2 02:31:11 55° NW 02:31:11 55° NW 02:36:58 10° NNE
ATLAS 5 CENTAUR R/B 3.8 02:33:43 15° NNW 02:33:43 15° NNW 02:35:16 10° N
Cosmos 1782 4.3 02:39:38 33° NNE 02:39:38 33° NNE 02:41:53 10° NNE
Meteor 2-20 4.4 02:34:29 10° NNW 02:40:06 66° WNW 02:40:06 66° WNW
DELTA 2 R/B (1) 4.2 02:46:34 41° SSE 02:46:34 41° SSE 02:51:20 10° E
Cosmos 1933 4.5 02:50:35 37° N 02:50:35 37° N 02:53:08 10° N
Cosmos 2184 Rocket 4.3 02:49:34 27° SSE 02:52:59 63° E 02:59:04 10° NNE
Cosmos 1408 Rocket 4.1 02:49:58 10° N 02:54:23 57° E 02:55:59 35° SE
Cosmos 1709 Rocket 4.3 02:55:58 45° WNW 02:55:58 45° WNW 03:01:38 10° N
Cosmos 2181 Rocket 3.9 02:51:33 10° NNW 02:57:58 75° W 03:00:35 38° S
Okean 3 Rocket 4.5 02:55:37 10° NNW 02:58:24 38° NNW 02:58:24 38° NNW
YAOGAN 6 4.4 02:57:27 10° NE 03:00:31 27° E 03:01:40 23° SE
SL-16 R/B 4.2 03:04:22 17° NW 03:04:22 17° NW 03:06:21 10° NW
ADEOS II 3.5 02:58:06 10° N 03:01:24 24° NW 03:01:24 24° NW
Cosmos 2369 Rocket 3.1 03:03:42 33° NW 03:03:47 33° NW 03:08:49 10° N
Meteor 2-20 Rocket 4.4 02:59:10 10° NNW 03:05:10 62° W 03:06:36 48° SW
Helios 1A 3.0 03:05:41 46° SE 03:06:49 74° ENE 03:10:57 10° N
Cosmos 923 Rocket 3.8 03:08:45 61° SW 03:09:35 76° WNW 03:14:49 10° NNE
Cosmos 2297 Rocket 4.4 03:05:41 10° N 03:10:24 26° NE 03:15:07 10° ESE
CZ-2C R/B 3.4 03:08:19 10° NNE 03:13:01 56° E 03:16:15 20° S
NOSS 3-4 (A) 4.3 03:06:35 10° NNW 03:13:28 64° NE 03:21:18 10° SE
NOSS 3-4 (C) 4.3 03:06:42 10° NNW 03:13:34 64° NE 03:21:24 10° SE
CZ-2C R/B 2.3 03:09:47 10° NNE 03:14:37 89° WNW 03:16:12 44° SSW
Cosmos 2154 Rocket 4.2 03:10:06 14° S 03:15:32 71° E 03:21:46 10° NNE
Cosmos 1680 Rocket 3.4 03:16:16 46° SSW 03:17:54 86° WNW 03:23:13 10° NNE
Meteor 1-26 Rocket 4.1 03:16:41 43° SSW 03:18:30 70° WNW 03:24:15 10° N
NOSS 3-3 (A) 4.2 03:18:44 39° W 03:20:19 49° NW 03:26:39 10° NNE
NOSS 3-3 (C) 4.2 03:18:50 40° W 03:20:25 50° NW 03:26:45 10° NNE
BREEZE-M DEB (TANK) 3.8 03:17:33 32° W 03:20:47 66° NNW 03:24:00 10° ENE
Cosmos 1842 Rocket 3.6 03:21:11 55° W 03:21:12 55° WNW 03:25:30 10° N
FENGYUN 3A 4.1 03:17:24 10° N 03:22:27 40° WNW 03:23:11 39° W
CZ-2C R/B 2.7 03:19:30 21° S 03:23:15 62° W 03:28:45 10° NNW
Cosmos 1484 Rocket 3.9 03:21:11 10° NNE 03:24:46 41° E 03:27:41 14° SSE
Nadezhda 3 Rocket 4.1 03:20:06 10° N 03:26:25 79° E 03:32:45 10° S
Cosmos 2112 Rocket 3.9 03:26:32 36° SSW 03:28:43 81° WNW 03:34:02 10° NNE
Cosmos 1371 Rocket 3.9 03:25:58 10° NNW 03:31:11 90° SW 03:36:21 10° SSE
IRS-1D 4.0 03:26:56 10° N 03:31:30 38° WNW 03:32:12 36° W
Genesis I 3.1 03:30:52 58° SW 03:31:35 89° NW 03:35:30 10° NE
ARIANE 5 R/B 3.4 03:26:48 10° NNE 03:31:50 50° E 03:36:53 10° S
Cosmos 1515 4.1 03:29:41 22° SSE 03:31:51 58° E 03:35:30 10° NNE
Cosmos 1610 Rocket 4.5 03:28:03 10° S 03:34:10 83° E 03:40:21 10° N
Timation 1 Rocket 4.3 03:28:44 10° NW 03:34:37 57° WSW 03:40:26 10° S
ALOS 3.0 03:31:14 10° N 03:35:24 33° WNW 03:35:46 33° WNW
Cosmos 972 Rocket 4.2 03:31:22 10° NNW 03:37:41 82° WSW 03:43:14 10° SSE
Cosmos 2056 Rocket 3.4 03:33:45 10° NNW 03:38:58 82° WSW 03:44:13 10° SSE
Cosmos 2074 Rocket 4.1 03:37:02 24° SSW 03:40:45 57° WNW 03:46:57 10° N
Cosmos 1500 Rocket 3.4 03:37:40 10° NNW 03:41:58 67° W 03:46:15 10° S
Cosmos 1867 4.0 03:40:38 10° NW 03:45:40 39° WSW 03:50:39 10° S
Cosmos 1805 Rocket 3.5 03:44:28 10° N 03:48:56 82° W 03:53:22 10° S
Cosmos 1607 4.3 03:44:10 13° SSW 03:49:33 64° ESE 03:55:41 10° NE
Helios 1B rocket 3.5 03:46:53 10° NNE 03:50:44 43° E 03:54:32 10° S
Cosmos 1624 Rocket 4.0 03:45:56 10° NNW 03:51:13 65° WSW 03:56:26 10° S
USA 276 2.0 03:51:00 52° WNW 03:51:23 60° NNW 03:54:15 10° ENE
Cosmos 1420 Rocket 3.9 03:48:32 10° NNW 03:53:40 64° WSW 03:58:47 10° S
Cosmos 2221 4.3 03:56:25 16° WNW 03:56:25 16° WNW 03:58:47 10° NNW
Meteor 1-14 Rocket 4.2 03:53:03 10° NNW 03:58:29 56° W 04:03:54 10° S
Meteor 2-6 Rocket 4.3 03:52:48 10° SSW 03:58:43 68° WNW 04:04:40 10° N
CBERS-1 4.5 03:54:27 10° N 03:59:14 41° WNW 04:02:11 21° SW
SeaSat 1 4.2 03:56:49 10° N 03:59:50 16° NW 04:01:35 14° WNW
Meteor 1-10 Rocket 4.4 03:54:24 10° S 04:00:20 84° E 04:06:18 10° NNE
Cosmos 1656 4.0 03:55:42 10° SSW 04:01:02 65° ESE 04:06:29 10° NNE
USA 281 3.6 03:56:17 10° SE 04:02:46 67° ENE 04:09:16 10° NNW
Orbus 7S? 3.8 03:57:51 10° NW 04:04:26 76° NE 04:07:40 10° SE
Cosmos 1461 3.1 04:01:55 23° SW 04:04:32 63° NW 04:09:04 10° NNE
ATLAS CENTAUR R/B 3.8 04:03:23 10° NW 04:04:47 11° NNW 04:06:09 10° NNW
USA 32 4.0 04:00:06 10° N 04:05:21 81° W 04:10:35 10° S
Cosmos 1743 2.5 04:05:05 10° N 04:08:51 88° W 04:12:34 10° S
Lacrosse 5 3.8 04:09:00 10° NW 04:12:48 20° N 04:16:35 10° NE
SL-08 R/B 3.5 04:09:19 10° SSE 04:14:10 79° ENE 04:18:58 10° NNW
Cosmos 494 Rocket 4.3 04:09:13 10° SSW 04:14:27 73° ESE 04:19:42 10° NNE
GEOS 3 Rocket 3.9 04:09:58 10° SSE 04:14:52 43° WSW 04:19:55 10° NW
Cosmos 1452 Rocket 3.9 04:11:04 10° NNW 04:16:21 68° ENE 04:21:35 10° SSE
SL-27 R/B 3.1 04:14:35 10° NW 04:17:19 26° WSW 04:20:02 10° SSW
Cosmos 1151 Rocket 2.9 04:14:09 10° SSW 04:18:29 73° W 04:22:49 10° N
DMSP B5D2-2 4.1 04:15:39 10° SSE 04:20:53 90° SSE 04:26:08 10° NNW
SL-8 Rocket 4.1 04:15:19 10° S 04:21:37 86° E 04:27:56 10° N
NOSS 2-1 (E) 4.0 04:18:14 10° NW 04:22:44 85° SW 04:29:11 10° SSE
Cosmos 1048 Rocket 4.2 04:18:34 10° SSW 04:23:55 81° ESE 04:29:19 10° NNE
Okean 1 4.3 04:21:43 10° SSE 04:25:29 48° E 04:29:19 10° NNE
Envisat 3.5 04:21:07 10° N 04:25:50 40° WNW 04:30:32 10° SW
IRS-1C 4.4 04:24:52 10° N 04:29:58 47° WNW 04:35:02 10° SW
DELTA 2 DEB (DPAF) 4.1 04:25:45 10° SSE 04:30:08 89° ENE 04:34:33 10° NNW
DELTA 2 R/B (1) 4.0 04:27:19 13° WSW 04:32:04 52° S 04:37:30 10° ESE
Cosmos 1697 Rocket 3.6 04:27:24 10° S 04:32:50 52° ESE 04:38:17 10° NE
YAOGAN 6 4.0 04:30:49 10° NNW 04:33:26 20° WNW 04:35:37 12° WSW
SKYMED 2 4.0 04:30:47 10° SSE 04:35:05 68° ENE 04:39:24 10° N
PSLV R/B 4.0 04:31:06 10° NNE 04:35:21 66° ESE 04:39:37 10° S
Cosmos 1666 Rocket 3.5 04:32:11 10° NNW 04:36:28 67° W 04:40:46 10° S
Meteor 1-27 Rocket 3.8 04:30:46 10° SSW 04:36:35 79° W 04:42:19 10° N
COSMOS 2455 2.9 04:30:56 10° SW 04:36:57 79° WNW 04:43:02 10° NNE
Sich 1 3.9 04:33:27 10° NNW 04:37:15 29° W 04:41:01 10° SSW
Cosmos 1959 Rocket 4.5 04:33:12 10° S 04:39:21 86° W 04:45:30 10° N
Cosmos 1437 Rocket 2.6 04:36:35 10° NNW 04:40:26 71° W 04:44:10 10° S
Cosmos 405 Rocket 2.7 04:38:12 10° SSW 04:41:45 53° WNW 04:45:19 10° N
IKONOS-2 4.4 04:37:34 10° S 04:41:46 76° WSW 04:46:00 10° NNW
Meteor 2-9 Rocket 4.2 04:39:13 10° N 04:44:34 83° E 04:50:01 10° SSE
ATLAS 2AS CENTAUR R/B 3.8 04:39:20 10° NNW 04:46:07 47° NE 04:52:30 10° ESE
Cosmos 1515 Rocket 4.2 04:42:44 10° S 04:46:58 59° E 04:51:15 10° NNE
Cosmos 1536 3.2 04:44:05 10° NNW 04:47:48 40° W 04:51:32 10° SSW
Cosmos 1633 Rocket 3.1 04:46:08 10° NNW 04:50:29 58° W 04:54:48 10° S
Cosmos 1980 Rocket 3.9 04:46:53 10° S 04:52:04 37° ESE 04:57:15 10° NE
CZ-2C R/B 4.3 04:50:09 10° NW 04:52:07 12° WNW 04:54:08 10° W
Cosmos 864 Rocket 4.5 04:46:22 10° SSW 04:52:27 67° W 04:58:36 10° N
CZ-2C R/B 4.4 04:49:15 10° NNW 04:52:30 18° WNW 04:55:47 10° WSW
Cosmos 2297 Rocket 2.3 04:49:16 10° NNW 04:54:48 56° WSW 05:00:18 10° S
